www.pogodaiklimat.ru

Погода и климат >> Архив погоды >> Аргентина >> Buenos Aires Aeropuerto


АРХИВ ПОГОДЫ в Buenos Aires Aeropuerto

Время (UTC), дата Ветер
(напр.,м/с)
 
Видим.   Явления Облачность Т
(С)
Тd
(С)
f
(%)
Тe
(С)
Тes
(С)
Комфортность P
(гПа)
Po
(гПа)
Тmin
(С)
Tmax
(С)
R
(мм)
R24
(мм)
S
(см)
03 10.12 Ю 4 10 км 8/0
[Cs]
+23.2 +16.0 64 +28 +28 душно 1006.5 1005.8
06 10.12 Ю 3 10 км ясно +19.4 +14.3 72 +21 +21 комфорт 1006.8 1006.1
09 10.12 Ю 2 10 км 5/0
[Ci]
+17.8 +9.7 59 +19 +19 по сезону 1007.5 1006.8
12 10.12 С 2 10 км 5/0
[Ci fib]
+20.2 +12.7 62 +23 +31 комфорт 1007.3 1006.6 +17.8 +30.6
15 10.12 З 4 10 км ясно +28.7 +7.7 27 +28 +42 жарко 1006.3 1005.6
18 10.12 ЮЗ 4 10 км ясно +31.8 +5.9 20 +30 +41 жарко 1005.4 1004.6
21 10.12 Ю 7 10 км 1/0
[Ac trans]
+30.0 +8.6 26 +29 +30 жарко 1006.0 1005.3
00 11.12 Ю 5 10 км ясно +25.1 +4.6 27 +25 +25 комфорт 1010.4 1009.7 +20.2 +32.9
03 11.12 Ю 7 10 км ясно +18.3 +6.1 45 +18 +18 прохладно 1013.7 1013.0
06 11.12 Ю 5 10 км ясно +13.9 +7.7 66 +12 +12 очень
холодно
1015.0 1014.4
09 11.12 Ю 4 10 км ясно +13.2 +7.1 66 +12 +12 очень
холодно
1016.9 1016.2
12 11.12 Ю 5 10 км ясно +18.0 +7.9 52 +18 +23 прохладно 1018.0 1017.3 +13.2 +25.1
15 11.12 В 6 10 км 1/1 1350 м
[Cu hum]
+20.3 +9.3 49 +21 +30 комфорт 1017.8 1017.2
18 11.12 В 5 10 км ясно +21.6 +12.2 55 +24 +32 комфорт 1016.3 1015.6
21 11.12 В 6 10 км ясно +20.6 +12.1 58 +23 +24 комфорт 1014.9 1014.2
00 12.12 В 7 10 км ясно +19.2 +11.7 62 +20 +20 прохладно 1014.9 1014.2
03 12.12 В 7 10 км ясно +20.0 +13.4 66 +22 +22 комфорт 1015.1 1014.4
06 12.12 СВ 7 10 км ясно +19.0 +13.1 69 +19 +19 по сезону 1013.5 1012.8
09 12.12 С 7 10 км 4/0
[Ci]
+18.5 +12.9 70 +18 +18 прохладно 1014.4 1013.7
12 12.12 С 5 10 км 6/0
[Ci]
+20.5 +13.4 64 +23 +27 комфорт 1015.2 1014.5 +18.0 +20.5
15 12.12 С 4 10 км 8/0
[Cs]
+24.5 +14.9 55 +27 +40 жарко 1014.0 1013.3
18 12.12 С 4 10 км 6/0
[Ac cast Ci]
+27.8 +14.5 44 +30 +40 жарко 1011.5 1010.8
21 12.12 В 6 10 км 3/0
[Cc]
+25.7 +17.1 59 +30 +31 душно 1010.1 1009.4
00 13.12 В 5 10 км 4/0
[Ci]
+23.7 +17.9 70 +28 +28 душно 1010.7 1010.0 +20.5 +28.6
03 13.12 ЮВ 3 10 км 3/0
[Ci]
+22.9 +20.0 84 +30 +30 очень
душно
1010.8 1010.1
06 13.12 штиль 0 10 км 4/0
[Ci]
+22.8 +16.3 67 +27 +27 душно 1010.5 1009.8
09 13.12 В 3 10 км 5/0
[Ac trans Ci]
+23.0 +16.0 65 +27 +27 душно 1010.7 1010.0
12 13.12 С 3 10 км 8/0
[Ac trans Cs]
+24.3 +15.7 59 +27 +32 жарко 1011.5 1010.8 +21.3 +24.7
15 13.12 С 3 10 км 9/0
[Ac As Cs]
+26.5 +15.7 51 +30 +42 душно 1011.1 1010.4
18 13.12 С 2 10 км 9/0
[Ac As Cs]
+29.9 +13.8 37 +31 +43 жарко 1009.7 1009.0
21 13.12 ЮЗ 5 6000 м слабый дождь 10/0 1500 м
[As op]
+25.5 +16.7 58 +29 +29 душно 1010.0 1009.3
00 14.12 СВ 4 10 км в посл. час дождь 9/0
[Ac As]
+24.3 +16.2 61 +28 +28 душно 1009.5 1008.8 +21.8 +32.9 5
03 14.12 З 2 10 км 8/0 2000 м
[Ac As]
+21.8 +17.1 75 +26 +26 душно 1011.7 1011.0
06 14.12 З 2 10 км 4/0
[Ac As]
+20.4 +16.8 80 +24 +24 комфорт 1010.5 1009.8
09 14.12 З 2 10 км ясно +19.2 +15.5 79 +21 +21 комфорт 1011.6 1010.9
12 14.12 З 5 10 км ясно +22.5 +15.6 65 +26 +31 жарко 1012.7 1012.0 +19.0 +24.8 5
15 14.12 З 4 10 км ясно +28.0 +13.5 41 +30 +45 жарко 1012.3 1011.6
18 14.12 З 5 10 км 3/3 1200 м
[Cu hum]
+31.8 +12.7 31 +32 +39 жарко 1009.9 1009.2
21 14.12 З 4 10 км 4/4 1350 м
[Sc]
+33.1 +9.6 24 +32 +34 жарко 1008.7 1008.0
00 15.12 З 2 10 км 4/0
[Ci fib]
+30.2 +10.2 29 +30 +30 жарко 1010.0 1009.3 +22.5 +33.5
03 15.12 З 2 10 км 3/0
[Cs]
+27.5 +10.0 33 +28 +28 жарко 1011.5 1010.8
06 15.12 З 1 10 км ясно +23.5 +12.2 49 +25 +25 комфорт 1010.5 1009.8
09 15.12 З 2 10 км 1/0
[Ci fib]
+24.2 +10.5 42 +25 +25 комфорт 1011.1 1010.5
12 15.12 С 3 10 км 4/0
[Ci fib]
+28.5 +15.5 45 +31 +38 душно 1011.7 1011.0 +23.4 +30.5
15 15.12 С 4 10 км 3/0
[Ci fib]
+29.2 +20.6 60 +36 +50 очень
душно
1010.8 1010.1
18 15.12 С 4 10 км 3/1 600 м
[Cu hum Ac As]
+30.6 +19.6 52 +37 +37 очень
душно
1008.6 1007.8
21 15.12 С 4 10 км 3/0
[Ac und]
+30.9 +20.3 53 +37 +40 очень
душно
1005.9 1005.2
00 16.12 СЗ 3 10 км 1/0
[Ci fib]
+29.9 +15.9 43 +33 +33 душно 1005.8 1005.0 +27.4 +32.0
03 16.12 СЗ 3 10 км 4/0
[Ac trans]
+27.1 +18.1 58 +32 +32 очень
душно
1006.2 1005.4
06 16.12 С 3 10 км 4/3 1500 м
[Sc Ac As]
+26.7 +19.9 66 +33 +33 очень
душно
1005.3 1004.6
09 16.12 СЗ 4 10 км {дождь} 5/0
[Ac cast]
+26.1 +19.2 66 +31 +31 очень
душно
1005.0 1004.2
12 16.12 СЗ 4 10 км {дождь} 4/0
[Ac cast Cs]
+27.8 +17.5 53 +32 +37 душно 1005.2 1004.5 +26.0 +30.0 0.0
15 16.12 СЗ 7 10 км 8/1 1350 м
[Cb cap Ac As Cs]
+26.8 +16.2 52 +30 +34 душно 1004.3 1003.6
18 16.12 З 4 8000 м гроза, ливневой дождь 10/3 600 м
[Cb cap As op]
+22.8 +18.2 75 +28 +30 душно 1004.4 1003.7 0.0
21 16.12 С 7 10 км {гроза} 8/3 1470 м
[Cb calv Ac As]
+27.0 +19.5 64 +33 +33 очень
душно
999.3 998.6

 

Местоположение метеостанции Buenos Aires Aeropuerto (Аргентина): широта -34.56 долгота -58.41 высота над уровнем моря 6 м.

В архиве по умолчанию представлена погода в Buenos Aires Aeropuerto за последнюю неделю. Архивные данные за месяц целиком и за предыдущие месяцы, начиная с января 2011 года, Вы можете получить, выбрав интересующий диапазон дат из раскрывающегося списка и нажав кнопку "Ввод!".

Внимание! Время в таблицах - всемирное. Для получения местного времени необходимо прибавить поправку, которая в Buenos Aires Aeropuerto равна -3 ч.

Смотрите также архив погоды в соседних городах и на ближайших метеорологических станциях:

Погода в Buenos Aires (Аргентина) (7 км)
Погода в Ezeiza (Аргентина) (30 км)
Погода в Colonia (Уругвай) (55 км)
Погода в La Plata (Аргентина) (64 км)
Погода в Mercedes (Уругвай) (149 км)
Погода в Gualeguaychu (Аргентина) (174 км)
Погода в Las Flores (Аргентина) (179 км)
Погода в Melilla (Уругвай) (199 км)
Погода в Prado (Уругвай) (205 км)
Погода в Dolores (Аргентина) (206 км)

Пояснения к столбцам:

Ветер - указаны скорость ветра в м/с - средняя за 10 мин, порывы в срок и между сроками (в фигурных скобках) и направление, откуда дует ветер: С - северный, СВ - северо-восточный, В - восточный, ЮВ - юго-восточный, Ю - южный, ЮЗ - юго-западный, З - западный, СЗ - северо-западный.
Видимость - горизонтальная дальность видимости в метрах или километрах. При видимости от 1 до 10 км при отсутствии осадков обычно наблюдается дымка, при ухудшении видимости до 1 км и менее - туман. В сухую погоду видимость может ухудшаться дымом, пылью или мглою.
Явления - указаны атмосферные явления, наблюдавшиеся в срок или в последний час перед сроком; фигурными скобками обозначены явления, наблюдавшиеся между сроками (за 1-3 часа до срока); квадратными скобками обозначены град или гололедные отложения с указанием их диаметра в мм.
Облачность - указаны через наклонную черту общая и нижняя облачность в баллах и высота нижней границы облаков в метрах; квадратными скобками обозначены формы облаков: Ci - перистые, Cs - перисто-слоистые, Cc - перисто-кучевые, Ac - высококучевые, As - высокослоистые, Sc - слоисто-кучевые, Ns - слоисто-дождевые, Cu - кучевые, Cb - кучево-дождевые. Подробнее классификацию облаков см. в Атласе облаков (PDF).
T - Температура воздуха - температура, измеренная на высоте 2 м над землей.
Td - Температура точки росы - температура, при понижении до которой содержащийся в воздухе водяной пар достигнет насыщения.
f - Относительная влажность воздуха - влажноcть воздуха, измеренная на высоте 2 м над землей.
Te - Эффективная температура - температура, которую ощущает одетый по сезону человек в тени. Характеристика душности погоды. При расчете учитывается влияние влажности воздуха и скорости ветра на теплоощущения человека.
Tes - Эффективная температура на солнце - температура, которую ощущает человек, с поправкой на солнечный нагрев. Характеристика знойности погоды. Зависит от высоты солнца над горизонтом, облачности и скорости ветра. Ночью, в пасмурную погоду, а также при ветре 12 м/с и более поправка равна нулю.
P - Атмосферное давление - приведенное к уровню моря атмосферное давление.
Po - Атмосферное давление - измеренное на уровне метеостанции атмосферное давление.
Tmin - Минимальная температура - минимум температуры воздуха на высоте 2 м над землей.
Tmax - Максимальная температура - максимум температуры воздуха на высоте 2 м над землей.
R - Количество осадков - Количество выпавших осадков за период времени, мм. При наведении курсора мыши на число - период времени, за который выпало указанное количество осадков.
R24 - Количество осадков - Количество выпавших осадков за 24 часа, мм.
S - Снежный покров - Высота снежного покрова, см. При наведении курсора мыши на число - состояние снежного покрова и степень покрытия местности в баллах.